Weather History for PADE - October, 2012

Change the Weather History Date:

Tuesday, October 30, 2012

  Actual Average (PAOT) Record (PAOT)
Temperature  
Mean Temperature 27 °F 16 °F  
Max Temperature 28 °F 20 °F 40 °F (2002)
Min Temperature 25 °F 11 °F -14 °F (1975)
Degree Days  
Heating Degree Days 38 49  
Month to date heating degree days 1214  
Since 1 July heating degree days 2632  
Cooling Degree Days 0    
Month to date cooling degree days  
Year to date cooling degree days  
Moisture  
Dew Point 19 °F    
Average Humidity 71    
Maximum Humidity 80    
Minimum Humidity 63    
Precipitation  
Precipitation 0.00 in 0.03 in 0.12 in (1952)
Month to date precipitation 0.99  
Year to date precipitation 9.45  
Snow  
Snow 0.00 in 0.20 in 2.50 in (1952)
Month to date snowfall 5.8  
Since 1 July snowfall 6.6  
Since 1 September snowfall 6.6  
Snow Depth -    
Sea Level Pressure  
Sea Level Pressure 30.39 in    
Wind  
Wind Speed 27 mph (NNW)    
Max Wind Speed 33 mph    
Max Gust Speed 41 mph    
Visibility 9 miles    
Events Snow    
T = Trace of Precipitation, MM = Missing Value Source: NWS Daily Summary

Daily Weather History Graph

Daily Weather History Graph

Search for Another Location

Airport or City:

Trip Planner

Search our weather history database for the weather conditions in past years. The results will help you decide how hot, cold, wet, or windy it might be!

Date:

Astronomy

Oct. 30, 2012 Rise Set
Actual Time 10:42 AM AKDT 6:25 PM AKDT
Civil Twilight 9:44 AM AKDT 7:23 PM AKDT
Nautical Twilight 8:42 AM AKDT 8:24 PM AKDT
Astronomical Twilight 7:43 AM AKDT 9:24 PM AKDT
Moon 6:14 PM AKDT (10/30) 12:26 PM AKDT (10/30)
Length of Visible Light 9h 39m
Length of Day
7h 43m
Full, 99% of the Moon is Illuminated
Oct 30
Full
Nov 6
Last Quarter
Nov 13
New
Nov 20
First Quarter
Nov 28
Full

Hourly Weather History & Observations

Time (AKDT) Temp. Windchill Dew Point Humidity Pressure Visibility Wind Dir Wind Speed Gust Speed Precip Events Conditions
1:05 AM 26.6 °F 12.0 °F 21.2 °F 80% 30.34 in 7.0 mi NW 23.0 mph 32.2 mph 0.00 in   Overcast
1:45 AM 28.4 °F 12.0 °F 21.2 °F 74% 30.34 in 4.0 mi NW 33.4 mph 39.1 mph 0.00 in Snow Light Snow
1:53 AM 28.0 °F 12.3 °F 21.9 °F 78% 30.35 in 4.0 mi NW 29.9 mph 39.1 mph 0.00 in Snow Light Snow
2:17 AM 28.4 °F 13.5 °F 21.2 °F 74% 30.35 in 6.0 mi NW 26.5 mph 35.7 mph 0.00 in Snow Light Snow
2:38 AM 28.4 °F 13.8 °F 21.2 °F 74% 30.35 in 10.0 mi NW 25.3 mph 34.5 mph 0.00 in   Overcast
3:07 AM 28.4 °F 12.7 °F 21.2 °F 74% 30.35 in 10.0 mi NW 29.9 mph 35.7 mph N/A   Overcast
3:29 AM 28.4 °F 13.3 °F 21.2 °F 74% 30.35 in 10.0 mi NW 27.6 mph 38.0 mph N/A   Overcast
3:53 AM 28.9 °F 14.0 °F 21.0 °F 72% 30.36 in 10.0 mi NW 27.6 mph 41.4 mph N/A   Overcast
4:24 AM 28.4 °F 12.7 °F 21.2 °F 74% 30.35 in 7.0 mi NW 29.9 mph 38.0 mph 0.00 in Snow Light Snow
4:31 AM 28.4 °F 13.3 °F 21.2 °F 74% 30.35 in 8.0 mi NW 27.6 mph 38.0 mph 0.00 in   Overcast
4:53 AM 28.9 °F 13.2 °F 21.0 °F 72% 30.36 in 10.0 mi NW 31.1 mph 38.0 mph 0.00 in   Overcast
5:11 AM 28.4 °F 13.3 °F 21.2 °F 74% 30.35 in 9.0 mi NW 27.6 mph 38.0 mph 0.00 in   Overcast
5:44 AM 28.4 °F 12.7 °F 21.2 °F 74% 30.35 in 10.0 mi NW 29.9 mph 36.8 mph 0.00 in   Scattered Clouds
5:53 AM 28.9 °F 13.2 °F 21.0 °F 72% 30.36 in 10.0 mi NW 31.1 mph - 0.00 in   Scattered Clouds
6:53 AM 28.0 °F 12.8 °F 19.9 °F 72% 30.36 in 10.0 mi NW 27.6 mph 35.7 mph N/A   Mostly Cloudy
7:53 AM 28.0 °F 12.0 °F 19.9 °F 72% 30.36 in 10.0 mi NNW 31.1 mph 36.8 mph N/A   Overcast
8:53 AM 27.0 °F 11.6 °F 19.0 °F 72% 30.37 in 10.0 mi NNW 26.5 mph 35.7 mph N/A   Partly Cloudy
9:53 AM 27.0 °F 11.3 °F 18.0 °F 69% 30.38 in 10.0 mi NNW 27.6 mph - N/A   Partly Cloudy
10:53 AM 27.0 °F 11.9 °F 18.0 °F 69% 30.40 in 10.0 mi NNW 25.3 mph 33.4 mph N/A   Clear
11:53 AM 27.0 °F 11.3 °F 17.1 °F 66% 30.40 in 10.0 mi NNW 27.6 mph 34.5 mph N/A   Scattered Clouds
12:53 PM 27.0 °F 10.8 °F 16.0 °F 63% 30.42 in 10.0 mi NNW 29.9 mph 35.7 mph N/A   Mostly Cloudy
1:53 PM 26.1 °F 10.1 °F 16.0 °F 66% 30.43 in 10.0 mi North 27.6 mph 34.5 mph N/A   Clear
2:53 PM 26.1 °F 10.4 °F 17.1 °F 69% 30.43 in 10.0 mi North 26.5 mph - N/A   Overcast
3:53 PM 26.1 °F 11.3 °F 17.1 °F 69% 30.44 in 10.0 mi NNW 23.0 mph 29.9 mph N/A   Clear
4:53 PM 26.1 °F 11.3 °F 17.1 °F 69% 30.44 in 10.0 mi NNW 23.0 mph 33.4 mph N/A   Clear
5:53 PM 26.1 °F 11.6 °F 17.1 °F 69% 30.44 in 10.0 mi NNW 21.9 mph 31.1 mph N/A   Clear
6:53 PM 26.1 °F 10.4 °F 16.0 °F 66% 30.44 in 10.0 mi NNW 26.5 mph 33.4 mph N/A   Clear
7:53 PM 26.1 °F 10.7 °F 16.0 °F 66% 30.45 in 10.0 mi North 25.3 mph 31.1 mph N/A   Clear
8:53 PM 26.1 °F 11.3 °F 17.1 °F 69% 30.45 in 10.0 mi North 23.0 mph 34.5 mph N/A   Clear
9:53 PM 26.1 °F 12.7 °F 17.1 °F 69% 30.46 in 10.0 mi North 18.4 mph 32.2 mph N/A   Clear
10:53 PM 26.1 °F 10.4 °F 17.1 °F 69% 30.46 in 10.0 mi North 26.5 mph 35.7 mph N/A   Clear
11:53 PM 25.0 °F 9.5 °F 16.0 °F 69% 30.47 in 10.0 mi North 24.2 mph 31.1 mph N/A   Clear